Temperature
26 23 22 22 23 24 24 23 22 22 22 21 19 19 19 19 18 18 18 19 18 19 19 19 19 19 19 19 19 18 18 18 18 18 17 17 17 17 17 16 16 16 16 16
23 23 25 26 26 25 24 23 22 21 22 20 19 19 19 19 18 18 19 19 19 19 19 19 19 19 19 19 18 18 18 18 17 17 17 17 16 16 16 16 16 15 15 15
23 25 27 27 26 25 24 23 22 21 21 20 19 18 18 19 19 19 19 19 19 19 19 19 19 19 19 18 18 18 18 17 17 17 16 16 16 16 16 15 15 15 15 15
25 26 27 27 26 25 23 24 23 22 19 17 18 17 17 18 18 19 19 19 19 19 19 19 19 19 19 18 18 17 17 17 17 16 16 16 16 15 15 15 15 14 14 14
25 26 27 26 26 25 23 23 22 21 18 17 17 17 17 18 18 18 19 19 19 19 19 19 19 19 18 18 18 17 17 17 16 16 15 15 15 14 14 14 14 14 14 14
26 26 27 27 26 25 23 21 19 18 17 17 17 17 17 17 18 18 19 20 20 20 20 19 19 19 18 18 17 17 17 16 16 15 15 14 14 14 14 14 14 14 13 13
25 25 26 26 24 24 23 20 19 19 17 17 17 18 17 18 19 19 19 20 20 20 20 19 19 19 18 18 17 17 17 16 16 15 14 14 14 14 13 13 13 13 13 13
23 23 25 26 25 23 23 21 20 19 18 17 17 17 18 20 20 21 21 21 20 20 20 20 19 19 19 18 18 17 17 16 15 15 14 14 13 13 13 13 12 12 12 12
23 23 26 27 27 25 24 21 20 17 17 17 17 17 19 20 20 20 20 20 20 20 20 20 20 19 19 18 18 17 17 16 15 15 14 14 13 13 13 12 12 12 12 12
23 23 25 26 26 25 24 22 18 17 17 18 18 18 17 19 19 19 20 20 21 20 20 20 20 19 19 18 18 17 17 16 15 15 14 14 13 13 12 12 12 12 11 11
23 22 24 24 23 24 24 22 19 17 18 18 17 18 19 19 19 19 20 21 21 21 21 20 20 19 19 18 18 17 17 16 15 15 14 13 13 13 12 12 12 11 11 11
22 20 21 22 23 24 24 23 20 19 19 17 17 18 21 20 20 20 21 21 21 21 21 20 20 19 19 18 18 17 16 16 15 14 14 13 13 12 12 12 11 11 11 11
22 20 20 21 21 22 23 23 22 19 18 17 18 20 21 20 20 21 21 21 21 21 21 20 20 19 19 18 18 17 16 16 15 14 14 13 13 12 12 12 12 11 11 11
22 20 20 21 21 22 22 23 23 20 18 19 19 20 21 20 20 20 21 22 21 21 21 20 20 19 19 18 17 17 16 15 15 14 14 13 13 12 12 12 11 11 11 11
21 21 22 22 22 23 23 24 24 22 21 20 20 20 20 20 20 21 21 21 21 21 20 20 20 19 19 18 17 17 16 15 15 14 14 13 13 12 12 12 12 11 11 11
19 21 22 23 23 23 23 24 24 24 23 22 22 21 21 21 22 21 21 21 20 21 21 20 20 19 19 18 17 17 16 15 15 14 14 13 13 13 12 12 12 12 12 11
19 19 20 20 22 22 22 23 23 23 24 23 21 21 20 20 20 21 21 21 21 21 21 21 20 20 19 18 17 17 16 15 15 14 14 13 13 13 12 12 12 12 12 12
19 18 17 19 21 21 21 22 23 24 23 23 22 21 21 21 22 23 23 23 22 22 21 21 20 20 19 18 17 17 16 15 15 14 14 13 13 13 13 12 12 12 12 12
18 18 18 18 19 20 22 22 22 22 22 22 22 21 22 22 21 21 23 23 23 23 22 21 21 20 19 18 17 17 16 15 15 14 14 14 13 13 13 12 12 12 12 12
18 17 17 18 19 20 21 21 22 22 21 21 21 21 21 21 18 19 23 23 23 22 22 21 20 19 19 18 17 17 16 16 15 15 14 14 13 13 13 13 13 12 12 12
17 17 17 17 18 19 19 20 22 21 20 21 21 22 22 21 22 23 23 23 23 22 21 21 20 19 19 18 17 17 16 16 15 15 14 14 13 13 13 13 13 13 12 12
17 17 16 16 17 18 18 19 19 19 20 21 22 23 23 24 24 23 23 23 22 22 21 20 20 19 19 18 17 17 17 16 15 15 14 14 14 13 13 13 13 13 12 12
16 16 15 16 16 17 18 18 20 20 21 22 22 23 24 24 23 23 23 22 22 22 21 20 20 19 18 18 17 17 17 16 15 15 14 14 14 14 13 13 13 13 13 12
16 15 15 15 16 16 18 20 21 21 22 22 22 23 23 23 23 22 22 22 22 21 21 20 19 19 18 18 17 17 17 16 15 15 15 14 14 14 13 13 13 13 13 12
17 16 15 15 16 16 19 20 21 21 22 22 22 23 23 23 22 22 22 22 21 21 20 20 19 19 18 18 17 17 16 16 16 15 15 14 14 14 13 13 13 13 13 13
17 16 16 16 17 16 19 21 21 21 21 22 22 22 23 23 22 22 22 21 21 20 20 19 19 19 18 18 17 17 16 16 15 15 15 14 14 14 13 13 13 13 13 13
Wind_Speed
3 1 7 11 10 10 5 2 0 1 1 4 4 2 0 2 4 6 6 7 8 7 6 6 7 9 9 8 8 7 7 6 5 4 3 3 2 2 2 2 3 3 3 3
4 8 16 11 7 5 4 4 2 3 4 4 5 2 1 2 5 5 7 8 8 7 6 6 6 7 8 7 7 7 7 6 5 3 2 2 2 2 2 2 2 2 2 2
9 12 9 6 4 3 3 6 6 6 4 5 4 3 2 1 1 4 6 7 8 10 10 9 8 7 8 8 7 7 6 6 6 5 4 4 4 4 4 4 3 3 3 1
8 10 7 3 3 2 1 5 9 11 6 1 2 0 4 3 2 5 7 7 7 8 9 9 8 8 8 8 7 7 7 7 6 6 6 6 4 3 2 2 3 4 6 5
6 5 3 3 4 3 5 6 9 8 6 4 3 2 5 2 4 7 9 10 9 10 10 10 9 9 9 9 8 7 7 7 6 6 6 6 5 2 2 3 5 5 5 6
7 6 3 2 1 7 12 8 8 6 5 3 2 1 5 5 8 8 9 11 10 10 10 9 9 9 8 8 8 7 8 6 6 6 6 6 5 4 5 5 4 4 3 4
6 7 4 1 2 2 5 6 4 5 5 2 3 2 7 7 8 10 11 11 11 11 11 10 10 10 9 9 8 8 8 6 5 6 5 5 5 5 4 2 2 2 2 3
3 7 5 3 6 7 4 8 7 4 3 2 3 4 8 8 8 8 9 10 11 11 11 12 12 11 11 10 9 9 8 6 5 5 4 4 4 4 2 2 1 1 0 0
6 6 5 4 3 6 4 3 7 7 4 1 4 5 8 1 6 8 10 11 12 12 13 12 11 11 11 10 9 10 9 7 6 6 5 4 3 3 2 1 1 1 0 1
7 4 5 3 4 3 5 7 6 6 5 2 3 4 5 6 7 8 11 13 13 12 12 12 11 11 10 10 9 9 9 8 6 6 5 4 3 3 3 2 1 0 1 1
5 4 3 3 1 1 2 3 5 5 6 6 4 7 9 13 11 11 13 14 14 14 14 12 10 10 10 9 9 8 7 6 5 5 4 4 3 3 3 2 1 1 1 2
3 5 2 4 5 3 4 6 7 6 5 6 6 7 8 14 13 12 13 13 14 15 13 12 11 10 9 9 8 8 7 7 6 5 5 4 4 3 2 1 2 2 2 3
4 5 3 5 6 3 1 2 5 6 5 6 6 6 4 9 11 12 12 13 13 13 12 11 10 10 9 9 8 7 7 7 6 6 6 5 4 3 2 2 2 2 3 3
3 4 7 8 8 5 4 4 3 6 5 6 8 7 6 10 11 11 12 14 14 14 14 12 10 9 9 9 8 8 7 7 7 6 5 4 4 4 4 3 3 3 3 4
4 3 4 6 5 4 5 7 5 6 9 9 10 11 14 16 16 14 14 14 15 14 14 14 12 10 9 8 8 8 7 7 6 6 5 4 5 4 3 3 4 4 4 4
3 3 1 2 4 4 5 7 7 6 6 7 8 9 9 11 10 11 14 17 17 16 16 14 13 12 11 10 9 8 7 7 6 6 5 5 4 4 3 4 4 4 4 5
2 4 3 3 4 4 6 6 5 4 4 7 9 9 8 9 14 16 17 17 18 17 15 15 14 13 12 11 10 9 8 7 6 6 5 5 5 4 4 4 3 4 5 4
5 4 4 2 1 4 8 6 3 2 3 4 7 9 15 16 15 14 13 16 16 16 15 14 13 11 10 9 9 8 7 7 6 6 6 5 5 5 4 4 4 5 5 5
5 6 4 3 3 6 7 5 2 1 2 2 7 10 10 9 7 3 8 13 16 16 14 13 12 11 10 10 9 8 7 6 6 6 6 6 6 5 5 5 6 5 5 6
5 5 5 3 3 5 6 7 4 3 2 4 4 11 11 11 7 7 8 10 12 12 11 11 10 9 10 9 9 9 7 7 7 7 7 6 6 6 6 7 7 5 5 6
3 3 3 3 4 6 5 7 2 4 5 4 2 8 11 9 9 9 10 10 11 11 11 12 12 11 11 10 10 9 7 8 7 6 6 5 6 6 7 6 5 6 6 6
3 3 3 3 3 7 3 3 2 5 3 1 1 4 6 6 6 9 12 12 13 11 10 12 11 10 9 10 10 8 8 7 6 6 5 6 6 6 5 6 6 6 6 6
4 6 5 5 6 6 4 5 6 4 3 1 1 1 4 7 7 10 11 13 13 13 12 10 11 10 8 9 9 9 8 7 6 5 5 6 6 6 6 6 7 6 5 5
3 2 3 3 7 8 7 6 6 5 4 3 2 3 5 7 9 10 11 11 11 10 11 9 10 10 9 9 9 9 8 7 7 6 6 6 6 6 6 5 5 5 6 6
6 5 3 4 5 4 6 6 6 4 2 2 2 3 6 8 8 10 11 11 10 9 9 9 10 11 10 9 9 9 8 7 7 7 7 6 6 6 6 6 6 7 8 8
4 7 7 7 8 6 6 5 3 2 2 3 3 2 3 7 9 10 10 10 9 9 8 8 9 9 9 8 8 7 7 7 7 7 6 6 5 5 5 6 7 10 11 14
Wind_Direction
264 165 244 241 220 214 227 186 131 293 79 77 84 78 209 139 123 119 130 132 137 144 144 132 124 117 108 98 93 91 86 73 70 62 65 64 53 55 58 74 102 110 118 122
320 258 247 244 248 213 172 138 122 63 62 82 87 52 302 173 164 160 158 158 155 144 141 137 131 122 115 110 104 97 90 81 74 75 76 91 90 73 74 51 52 63 85 112
227 251 254 244 250 155 148 161 162 146 89 64 97 21 319 293 168 177 174 166 164 162 159 156 145 135 127 123 124 116 108 94 83 75 64 57 49 40 32 23 7 353 18 43
249 259 270 256 241 170 142 162 140 137 121 54 68 191 269 228 225 187 184 178 180 175 163 160 154 146 141 140 135 126 115 101 91 85 80 81 81 64 20 358 3 2 17 30
265 281 301 267 226 126 138 123 105 116 111 84 31 100 277 225 205 202 195 190 184 180 171 169 163 156 150 145 137 129 117 106 99 94 96 90 81 72 35 33 31 25 22 39
264 279 249 232 178 130 134 96 72 63 75 56 293 171 266 221 204 193 191 189 179 173 169 159 152 146 145 144 139 133 122 117 112 105 101 101 94 75 61 46 34 23 17 22
301 300 288 152 87 90 114 96 46 19 29 301 272 249 253 241 208 188 186 182 175 172 164 157 154 155 159 158 153 144 134 132 128 120 116 116 112 103 99 86 59 41 22 14
235 282 266 218 177 186 184 138 153 170 173 269 308 266 260 255 213 192 182 175 172 170 167 168 168 164 165 164 157 150 147 149 148 138 138 132 129 128 135 133 121 96 87 305
197 253 275 246 204 150 146 145 144 123 116 114 292 290 303 224 168 179 177 175 176 175 173 172 169 164 161 159 160 159 156 157 159 156 150 144 145 146 156 153 123 124 258 246
175 231 286 294 46 38 140 142 98 112 137 166 262 266 238 228 202 187 181 182 182 176 171 169 166 163 161 161 160 157 157 162 165 160 156 151 159 156 149 130 119 184 273 320
157 176 291 15 125 200 86 107 116 122 149 149 202 255 220 203 202 193 189 184 179 174 172 170 166 162 157 154 153 155 158 154 157 156 146 135 143 140 130 132 183 216 248 280
153 133 209 260 260 226 186 171 145 151 189 166 176 255 234 192 196 191 189 184 178 171 167 163 159 155 153 154 156 156 155 151 156 152 142 142 141 138 142 174 227 234 255 271
117 117 88 342 332 334 259 195 154 140 134 159 170 246 227 183 191 190 184 176 167 160 158 156 156 159 161 160 158 155 154 155 152 144 140 142 150 164 189 218 243 250 257 272
118 136 163 192 222 226 251 248 191 138 158 188 204 207 195 190 191 187 179 170 162 161 161 161 165 167 166 163 160 155 157 156 150 144 145 159 183 199 213 226 240 249 252 261
107 162 204 220 231 218 235 256 253 214 188 185 211 196 200 195 190 184 173 164 160 163 166 169 170 171 167 163 162 158 159 159 154 151 158 186 201 205 213 233 251 259 262 261
90 148 173 291 269 277 279 267 263 250 211 196 183 211 213 186 164 163 166 165 167 171 175 174 172 170 171 170 167 163 165 168 161 163 182 196 198 208 223 240 253 263 268 270
153 137 127 254 282 347 296 261 249 251 222 163 177 206 166 159 170 174 174 172 174 177 176 176 176 176 176 175 168 169 172 170 168 180 193 198 201 211 226 238 249 263 265 262
156 140 144 188 15 247 249 258 252 241 238 197 177 171 168 174 176 174 171 173 177 178 176 177 176 175 174 170 167 166 165 168 177 188 200 204 203 214 228 239 254 258 255 256
156 142 130 139 197 263 285 297 305 156 309 223 160 164 156 131 109 159 190 174 176 177 175 176 175 171 168 169 168 160 167 174 183 198 207 211 206 213 228 244 253 253 254 261
64 94 121 140 174 234 258 292 296 105 339 322 149 152 140 122 144 212 203 176 168 162 163 165 163 157 165 174 162 160 175 183 199 206 207 206 205 213 228 241 250 250 248 256
33 59 116 165 206 255 271 306 18 133 230 279 179 156 150 165 189 187 165 164 162 157 160 158 157 164 174 170 160 169 183 202 211 205 201 208 218 226 234 243 248 252 255 265
172 150 162 149 190 244 296 359 158 213 241 239 161 154 159 169 160 152 160 163 159 155 157 159 162 171 174 167 165 177 199 211 202 195 204 221 233 242 242 239 256 256 253 263
190 185 175 187 222 256 248 234 254 228 211 224 223 213 153 144 156 163 169 167 165 162 163 163 165 170 176 177 173 186 209 201 193 199 219 236 247 253 251 244 254 262 255 251
236 161 141 223 261 269 267 256 256 230 217 231 204 166 163 170 170 173 170 169 166 165 165 160 158 168 186 193 192 198 201 192 190 209 229 239 248 261 264 256 248 249 253 251
196 163 173 232 256 278 279 263 261 259 234 220 196 172 164 164 172 174 169 170 169 164 163 162 169 182 194 196 203 206 199 188 199 217 232 242 246 254 263 261 252 248 244 237
207 180 181 213 217 193 234 243 228 193 215 186 154 143 153 167 173 169 170 170 164 163 162 168 179 187 196 198 209 214 204 195 202 222 235 240 245 252 255 265 282 269 257 262
Height
1502 1508 1511 1505 1502 1503 1504 1508 1513 1510 1505 1510 1515 1516 1515 1514 1516 1517 1518 1519 1522 1525 1526 1528 1529 1531 1532 1534 1535 1536 1536 1537 1537 1537 1538 1538 1538 1538 1538 1538 1539 1538 1538 1538
1507 1508 1495 1493 1493 1497 1502 1509 1513 1513 1509 1513 1518 1518 1515 1515 1516 1517 1518 1520 1523 1526 1527 1529 1531 1532 1533 1534 1535 1536 1536 1536 1537 1537 1537 1537 1537 1537 1537 1537 1537 1537 1537 1536
1506 1496 1487 1489 1492 1496 1501 1507 1509 1513 1513 1515 1519 1525 1520 1517 1518 1519 1520 1521 1523 1525 1527 1530 1532 1533 1534 1535 1536 1536 1536 1536 1537 1536 1536 1536 1536 1536 1536 1536 1536 1535 1535 1534
1496 1487 1486 1488 1491 1493 1504 1497 1499 1507 1519 1530 1526 1539 1527 1521 1520 1519 1520 1521 1523 1526 1528 1529 1531 1533 1534 1535 1535 1536 1536 1536 1535 1535 1535 1534 1534 1534 1534 1534 1534 1534 1533 1532
1493 1485 1485 1488 1487 1488 1499 1496 1501 1509 1521 1532 1532 1538 1533 1522 1522 1520 1520 1521 1523 1526 1527 1529 1531 1532 1533 1534 1535 1535 1535 1535 1534 1534 1533 1533 1533 1533 1533 1533 1532 1532 1531 1531
1486 1482 1481 1482 1482 1484 1493 1501 1509 1518 1527 1542 1536 1538 1534 1524 1518 1517 1517 1519 1521 1524 1526 1528 1530 1531 1533 1533 1534 1534 1534 1534 1534 1533 1532 1532 1531 1531 1531 1531 1530 1530 1529 1529
1492 1484 1479 1479 1487 1489 1492 1511 1531 1537 1546 1546 1533 1533 1528 1512 1509 1510 1513 1516 1519 1522 1524 1527 1528 1529 1531 1532 1532 1533 1533 1533 1532 1532 1531 1530 1530 1530 1529 1529 1528 1528 1527 1527
1502 1501 1481 1477 1481 1489 1492 1503 1528 1541 1548 1544 1534 1534 1518 1504 1504 1506 1509 1513 1516 1519 1522 1524 1526 1528 1529 1530 1531 1532 1532 1531 1531 1531 1530 1529 1529 1528 1528 1527 1527 1526 1525 1525
1499 1498 1476 1473 1473 1479 1490 1500 1505 1527 1539 1546 1538 1527 1511 1500 1502 1504 1507 1511 1514 1516 1519 1522 1524 1526 1528 1529 1530 1530 1530 1530 1530 1530 1529 1528 1528 1527 1526 1526 1525 1524 1523 1523
1485 1494 1481 1474 1473 1476 1481 1491 1509 1525 1542 1547 1540 1531 1524 1509 1505 1504 1505 1508 1510 1514 1517 1520 1522 1524 1526 1527 1528 1529 1529 1529 1529 1528 1528 1527 1526 1526 1525 1524 1523 1522 1521 1520
1478 1492 1488 1482 1484 1485 1485 1491 1503 1518 1523 1539 1546 1532 1500 1499 1498 1500 1501 1503 1506 1510 1514 1517 1520 1522 1524 1526 1526 1527 1527 1527 1527 1526 1526 1526 1525 1524 1524 1523 1522 1520 1519 1518
1475 1490 1497 1488 1478 1475 1478 1483 1496 1514 1520 1522 1530 1521 1484 1487 1490 1494 1496 1499 1503 1507 1511 1515 1518 1520 1522 1523 1524 1525 1525 1525 1525 1525 1524 1524 1523 1522 1522 1520 1519 1518 1517 1516
1474 1491 1504 1502 1494 1482 1479 1478 1484 1496 1509 1518 1524 1512 1482 1484 1488 1490 1493 1497 1501 1505 1509 1513 1516 1518 1520 1521 1522 1522 1522 1523 1523 1523 1522 1522 1521 1520 1519 1518 1517 1516 1515 1514
1469 1485 1496 1502 1496 1484 1482 1478 1478 1490 1506 1509 1506 1496 1486 1485 1486 1488 1490 1494 1498 1502 1506 1510 1513 1515 1517 1518 1519 1520 1520 1520 1521 1520 1520 1520 1519 1518 1517 1517 1516 1515 1513 1512
1469 1481 1479 1478 1475 1475 1476 1474 1473 1479 1485 1494 1489 1486 1480 1477 1479 1483 1487 1492 1496 1500 1504 1507 1510 1512 1514 1516 1516 1517 1518 1518 1518 1518 1518 1517 1517 1516 1516 1515 1514 1513 1511 1510
1469 1477 1477 1477 1472 1471 1473 1468 1467 1468 1469 1473 1476 1478 1469 1471 1476 1481 1485 1489 1493 1497 1500 1503 1506 1509 1511 1512 1514 1514 1515 1516 1516 1516 1515 1515 1515 1514 1513 1513 1512 1510 1509 1508
1473 1477 1484 1488 1476 1475 1481 1469 1466 1465 1461 1465 1473 1470 1466 1472 1474 1477 1481 1485 1489 1492 1496 1500 1503 1505 1507 1509 1511 1512 1512 1513 1513 1513 1513 1513 1512 1512 1511 1510 1509 1508 1507 1505
1470 1476 1485 1488 1485 1493 1477 1459 1458 1458 1457 1455 1456 1458 1460 1463 1468 1473 1477 1481 1485 1489 1493 1496 1499 1502 1505 1506 1508 1509 1510 1510 1510 1510 1510 1510 1510 1509 1508 1507 1506 1505 1504 1502
1462 1471 1483 1492 1494 1486 1469 1459 1458 1460 1462 1454 1454 1457 1459 1464 1471 1476 1477 1479 1482 1485 1489 1493 1496 1499 1502 1503 1505 1506 1507 1507 1507 1507 1507 1507 1507 1506 1505 1504 1503 1502 1500 1499
1463 1468 1481 1489 1491 1492 1473 1459 1454 1458 1467 1457 1454 1456 1460 1464 1477 1476 1475 1477 1480 1483 1487 1490 1494 1497 1499 1501 1502 1503 1504 1504 1504 1504 1504 1504 1504 1503 1502 1501 1500 1499 1497 1496
1474 1477 1482 1487 1488 1478 1465 1458 1456 1472 1470 1457 1456 1455 1457 1460 1464 1466 1471 1475 1478 1481 1485 1488 1491 1493 1496 1498 1499 1500 1500 1501 1501 1501 1501 1501 1501 1500 1499 1498 1497 1495 1494 1492
1477 1480 1483 1486 1488 1481 1460 1459 1462 1462 1456 1455 1454 1454 1456 1458 1460 1464 1468 1472 1475 1478 1482 1485 1488 1490 1493 1495 1496 1497 1497 1498 1498 1498 1498 1498 1497 1497 1496 1494 1493 1492 1490 1488
1471 1471 1473 1475 1474 1461 1457 1458 1456 1455 1455 1455 1454 1455 1456 1457 1459 1463 1466 1470 1472 1475 1479 1482 1485 1488 1490 1492 1493 1494 1495 1496 1496 1495 1495 1494 1494 1493 1492 1491 1489 1488 1486 1484
1466 1465 1468 1468 1462 1458 1454 1452 1452 1453 1453 1454 1455 1455 1456 1456 1458 1461 1464 1467 1470 1473 1476 1479 1483 1485 1487 1489 1490 1491 1492 1493 1493 1492 1492 1491 1490 1489 1488 1486 1485 1483 1481 1479
1459 1462 1465 1465 1459 1456 1451 1450 1450 1451 1452 1453 1454 1454 1455 1456 1458 1460 1462 1465 1468 1471 1474 1477 1480 1482 1484 1486 1488 1489 1489 1489 1489 1489 1488 1487 1486 1485 1483 1482 1481 1478 1477 1475
1453 1455 1459 1458 1451 1451 1449 1448 1449 1450 1452 1452 1452 1453 1453 1455 1456 1458 1460 1463 1466 1469 1473 1476 1478 1480 1482 1484 1485 1486 1486 1486 1486 1485 1484 1483 1482 1480 1479 1477 1476 1474 1472 1470